Location: Brede
(50.9167°N, 0.6000°E)
Time: 19:16:38
(UTC+00:00)

Cosmos 1943 - Pass Details

Date: 08 August 2020
Orbit: 834 x 849 km, 71.0° (Epoch: 24 September)

Event Time Altitude Azimuth Distance (km) Brightness Sun altitude
Rises 02:48:19 0° 330° (NNW) 3,394 6.6 -14.0°
Reaches altitude 10° 02:50:47 10° 333° (NNW) 2,456 5.9 -13.7°
Maximum altitude 02:56:24 71° 58° (ENE) 883 3.5 -13.1°
Drops below altitude 10° 03:02:00 10° 143° (SE) 2,445 5.5 -12.5°
Sets 03:04:27 0° 145° (SE) 3,377 6.2 -12.2°
